Погода в Сичане

Китай     27°53′48″N   102°14′45″E
темп.,
°C
ветер,
м/с
пор.,
м/с
влажн.,
%
обл.,
%
осадки,
мм/ч
давл.,
гПа
погр.,
м
28 января, чт
чт2823:00+2ссв46740 0.0 1022195
02:000ссв23780 0.0 102578
05:00−1ссв227815 0.0 102658
08:00−1ссв22797 0.0 102750
11:00+5зсз124918 0.0 1025817
14:00+9юз224411 0.0 1018819
17:00+9ююз22450 0.0 1016555
20:00+4всв22650 0.0 102026
29 января, пт
пт2923:00+2св23720 0.0 102236
02:000ссв22790 0.0 102129
05:00−1с11850 0.0 102023
08:00−2с11880 0.0 102021
11:00+6ююз12580 0.0 1017462
14:00+11ю24480 0.0 1011675
17:00+13ю48420 0.0 10091448
20:00+5в12650 0.0 101424
30 января, сб
сб3023:00+3св23660 0.0 101728
02:00+1ссв23800 0.0 101849
05:00−1ссв22880 0.0 101839
08:00−1с12904 0.0 102125
11:00+6зсз116244 0.0 1019574
14:00+11ююз234834 0.0 1014937
17:00+12ю25470 0.0 1012982
20:00+6св33632 0.0 101739
31 января, вс
вс3123:00+3ссв347939 0.0 101986
02:00+2с238165 0.0 1020113
05:00+1с238882 0.1 1019132
08:00+1ссз238585 0.2 1020169
11:00+3ссз2372100 0.1 1019433
14:00+10юз125494 0.3 1014936
17:00+9зсз126147 0.4 1012565
20:00+4ссв468953 1.1 1017147
1 февраля, пн
пн123:00+2ссв468288 0.0 1022229
02:00+1с358591 0.3 1023264
05:000ссз238495 0.1 1023168
08:00−2с129086 0.1 102436
11:00+5з116333 0.0 1021530
14:00+10ююз225017 0.0 1016858
17:00+11ю13470 0.0 1014876
20:00+5всв22670 0.0 101924